Regional Weather Roundup
Issued by NWS Jackson, KY

Home | Current Version | Previous Version | Graphics & Text | Print | Product List | Glossary On
Versions: 1 2 3 4 5 6 7 8 9 10 11 12 13 14 15 16 17 18 19 20 21 22 23 24 25 26 27 28 29 30 31 32 33 34 35 36 37 38 39 40 41 42 43 44 45 46 47 48 49 50
000
ASUS43 KJKL 302010
RWRJKL

EAST KENTUCKY HOURLY WEATHER ROUNDUP
NATIONAL WEATHER SERVICE JACKSON KY
400 PM EDT TUE JUN 30 2015

NOTE: "FAIR" INDICATES FEW OR NO CLOUDS BELOW 12,000 FEET WITH
NO SIGNIFICANT WEATHER AND/OR OBSTRUCTIONS TO VISIBILITY.

* THESE REPORTS ARE NOT UNDER NWS QUALITY CONTROL AND MAY NOT
  REPORT WEATHER SUCH AS PRECIPITATION AND FOG.

KYZ079-080-083-085-087-088-110-112-115-119-120-302100
...EASTERN KENTUCKY...

CITY           SKY/WX    TMP DP  RH WIND       PRES   REMARKS
JACKSON        CLOUDY    76  67  73 CALM      29.90S
LONDON         CLOUDY    74  64  71 S9        29.91S
SOMERSET*      MOSUNNY   77  63  61 W9        29.90F
MONTICELLO*    PTSUNNY   78  68  71 SW8       29.93F
MIDDLESBORO*   CLOUDY    81  68  65 S9        29.92S
HARLAN APT*      N/A     77  64  65 CALM      29.93R
HAZARD APT*    CLEAR     77  66  69 SW5       29.90
BLACK MTN*       N/A     68  63  83 SE6         N/A
PIKEVILLE APT* PTSUNNY   77  66  69 CALM      29.90F
BIG SANDY*     MOCLDY    78  66  66 W3        29.89S
MOREHEAD APT*  PTCLDY    81  64  57 SW9       29.88F
$$

KYZ035-036-041-042-044-050-067-078-099-302100
...CENTRAL KENTUCKY...

CITY           SKY/WX    TMP DP  RH WIND       PRES   REMARKS
MT STERLING*   PTSUNNY   79  68  69 W7        29.88S
FLEMING/MASON* MOSUNNY   81  68  65 W9        29.88R
DANVILLE*      MOSUNNY   81  64  57 SW13      29.89S
RICHMOND*      MOSUNNY   79  66  65 SW13      29.87F
LEXINGTON      SUNNY     82  66  58 SW12      29.85F
FRANKFORT      PTSUNNY   82  64  54 SW14      29.83F
$$

KYZ091>093-OHZ055-061-077-WVZ005-015-034-035-042-302100
...SOUTHERN OHIO/WEST VIRGINIA...

CITY           SKY/WX    TMP DP  RH WIND       PRES   REMARKS
COVINGTON      CLOUDY    64  61  90 CALM      29.84S
COLUMBUS       TSTM      71  64  78 SW10      29.81S
DAYTON         CLOUDY    76  65  68 SW10      29.83R
WILMINGTON     CLOUDY    66  60  81 SW13      29.84F
HUNTINGTON     MOSUNNY   80  64  58 SW12      29.85F
CHARLESTON     MOSUNNY   80  63  55 SW10      29.85F
PINEVILLE*     MOSUNNY   82  65  56 MISG      29.96F
BECKLEY        MOSUNNY   77  59  53 SW13      29.94F
BLUEFIELD      MOSUNNY   79  58  48 W13G21    29.97F
$$

VAZ002-007-008-TNZ017-027-036-066-071-302100
...SOUTHWEST VIRGINIA/EAST TENNESSEE...

CITY           SKY/WX    TMP DP  RH WIND       PRES   REMARKS
WISE*          PTSUNNY   75  59  57 SW9G17    29.99S
JONESVILLE*      N/A    N/A N/A N/A MISG        N/A
ABINGDON*      MOSUNNY   79  66  63 W8        29.96F
BRISTOL        CLOUDY    80  64  58 SW10      29.94S
KNOXVILLE      CLOUDY    74  68  81 VRB3      29.93R
OAK RIDGE      PTSUNNY   72  66  81 CALM      29.94S
CROSSVILLE     TSTM      74  67  78 W10       29.97R
NASHVILLE      CLOUDY    85  67  54 W13G21    29.90F
$$

...KEY TO REMARKS...
VSB - VISIBILITY IN MILES
WCI - WIND CHILL INDEX
HX  - HEAT INDEX

$$


USA.gov is the U.S. government's official web portal to all federal, state and local government web resources and services.